Saison 2023 · Manche 3

Australian Grand Prix

2023-04-02 · Albert Park Grand Prix Circuit · Australia · Australian Grand Prix · 58Lap · 306.124km
Red Bull 2:32:38.371
Victoire par équipe 36pt P1 · P5
Mercedes +0.179
Meilleur tour
1:20.235 · L53
Abandon
3
George Russell L17 Alexander Albon L6 Charles Leclerc L0
Météo
17°/30°
moy. air/piste · sec · humidité 54%
Voiture de sécurité
4
déployée au tour L1, L7, L54
Utilisation des pneus Direction de course
Storylines · This Grand Prix & circuit
Plus de victoires à ce GP
Michael Schumacher 4 victoires
Conversion pole-victoire 13/29 44.8%
Most SC/VSC · all-time P1
Arrivée la plus serrée · all-time P9
Most lead changes · all-time P1
Circuit Info
Albert Park Grand Prix Circuit Melbourne, Australia
58Lap 306.124km 29 courses held (1996–) Record du tour 1:19.813 · Charles Leclerc (2024)
Records Watch · Active drivers ranked at this Grand Prix
P4 Lewis Hamilton 2 victoires · → Sebastian Vettel -1
P12 Fernando Alonso 1 victoires · → Nico Rosberg -1
P12 Valtteri Bottas 1 victoires · → Nico Rosberg -1
P1 Lewis Hamilton 10 · GP #1
P12 Charles Leclerc 3 · → Nico Rosberg -1
P1 Fernando Alonso 21 départs · GP #1
P4 Lewis Hamilton 18 départs · → Rubens Barrichello -1
P11 Nico Hülkenberg 13 départs · → Giancarlo Fisichella -1
Course Trace · position by lap
SC · tours 1–3 SC · tours 7–19 SC · tours 54–58 drapeau rouge · course suspendue · tour 8 drapeau rouge · course suspendue · tour 55 drapeau rouge · course suspendue · tour 57 drapeau rouge · course suspendue · tour 58 départ arrêté · tour 9 départ arrêté · tour 9 départ arrêté · tour 56 départ arrêté · tour 56 départ lancé · tour 58 départ arrêté SG 1 6 11 16 21 26 31 36 41 46 51 56 FIN Verstappen VER Verstappen VER Hamilton HAM Hamilton HAM Alonso ALO Alonso ALO Stroll STR Stroll STR Pérez · arrêt aux stands L1 Pérez PER Pérez PER Norris NOR Norris NOR Hülkenberg HUL Hülkenberg HUL Piastri PIA Piastri PIA Zhou · arrêt aux stands L1 Zhou ZHO Zhou ZHO Tsunoda TSU Tsunoda TSU Bottas · arrêt aux stands L1 Bottas BOT Bottas BOT Sainz · +5s ajouté après la course Sainz SAI Sainz SAI Gasly · arrêté L56 · classé P13 Gasly GAS Gasly GAS Ocon · arrêt aux stands L1 Ocon · arrêté L56 · classé P14 Ocon OCO Ocon OCO de Vries · arrêt aux stands L45 de Vries · arrêté L56 · classé P15 de Vries DEV de Vries DEV Sargeant · arrêt aux stands L1 Sargeant · arrêt aux stands L36 Sargeant · arrêté L56 · classé P16 Sargeant SAR Sargeant SAR Magnussen · arrêté L52 · classé P17 Magnussen MAG Magnussen MAG Russell · abandon L17 Russell RUS Russell RUS Albon · abandon L6 Albon ALB Albon ALB Leclerc · abandon L0 Leclerc LEC Leclerc LEC
SC·VSC arrêt aux stands pénalité purgée aux stands drapeau rouge départ arrêté départ lancé SG Grille de départ FIN classement officiel pénalité ajoutée après la course voiture arrêtée position à chaque tour (depuis 1996)
PosPiloteTeamGrilleTourTemps / StatutPoints
1 1 Max Verstappen Red Bull 1 58 2:32:38.371 25
2 44 Lewis Hamilton Mercedes 3 58 +0.179 18
3 14 Fernando Alonso Aston Martin 4 58 +0.769 15
4 18 Lance Stroll Aston Martin 6 58 +3.082 12
5 11 Sergio Pérez FL Red Bull 20 58 +3.320 11
6 4 Lando Norris McLaren 13 58 +3.701 8
7 27 Nico Hülkenberg Haas F1 Team 10 58 +4.939 6
8 81 Oscar Piastri McLaren 16 58 +5.382 4
9 24 Guanyu Zhou Alfa Romeo 17 58 +5.713 2
10 22 Yuki Tsunoda AlphaTauri 12 58 +6.052 1
11 77 Valtteri Bottas Alfa Romeo 19 58 +6.513
12 55 Carlos Sainz Ferrari 5 58 +6.594
13 10 Pierre Gasly Alpine F1 Team 9 56
14 31 Esteban Ocon Alpine F1 Team 11 56
15 21 Nyck de Vries AlphaTauri 15 56
16 2 Logan Sargeant Williams 18 56
17 20 Kevin Magnussen Haas F1 Team 14 52
R 63 George Russell Mercedes 2 17 Retired
R 23 Alexander Albon Williams 8 6 Retired
R 16 Charles Leclerc Ferrari 7 0 Retired
PosPiloteTeamQ1Q2Q3Écart à la pole
1 1 Max Verstappen Red Bull 1:17.384 1:17.056 1:16.732 POLE Q3
2 63 George Russell Mercedes 1:17.654 1:17.513 1:16.968 +0.236 Q3
3 44 Lewis Hamilton Mercedes 1:17.689 1:17.551 1:17.104 +0.372 Q3
4 14 Fernando Alonso Aston Martin 1:17.832 1:17.283 1:17.139 +0.407 Q3
5 55 Carlos Sainz Ferrari 1:17.928 1:17.349 1:17.270 +0.538 Q3
6 18 Lance Stroll Aston Martin 1:17.873 1:17.616 1:17.308 +0.576 Q3
7 16 Charles Leclerc Ferrari 1:18.218 1:17.390 1:17.369 +0.637 Q3
8 23 Alexander Albon Williams 1:17.962 1:17.761 1:17.609 +0.877 Q3
9 10 Pierre Gasly Alpine F1 Team 1:18.312 1:17.574 1:17.675 +0.842 Q2
10 27 Nico Hülkenberg Haas F1 Team 1:18.029 1:17.412 1:17.735 +0.680 Q2
11 31 Esteban Ocon Alpine F1 Team 1:17.770 1:17.768 +1.036 Q2
12 22 Yuki Tsunoda AlphaTauri 1:18.471 1:18.099 +1.367 Q2
13 4 Lando Norris McLaren 1:18.243 1:18.119 +1.387 Q2
14 20 Kevin Magnussen Haas F1 Team 1:18.159 1:18.129 +1.397 Q2
15 21 Nyck de Vries AlphaTauri 1:18.450 1:18.335 +1.603 Q2
16 81 Oscar Piastri McLaren 1:18.517 +1.785 Q1
17 24 Guanyu Zhou Alfa Romeo 1:18.540 +1.808 Q1
18 2 Logan Sargeant Williams 1:18.557 +1.825 Q1
19 77 Valtteri Bottas Alfa Romeo 1:18.714 +1.982 Q1
20 11 Sergio Pérez Red Bull
Grille de départ
Officielle
Final grid as classé, including any depuis la voie des stands départs. Source: Jolpica-F1. The arrow compares the grid slot with the les qualifications classification; hover a drop to see the stewards document behind it.
Aucune donnée pour cette séance.
PosPiloteMeilleur tourÉcartTours
1 1 Max Verstappen 1:18.790 17
2 44 Lewis Hamilton 1:19.223 +0.433 20
3 11 Sergio Pérez 1:19.293 +0.503 19
4 14 Fernando Alonso 1:19.317 +0.527 23
5 16 Charles Leclerc 1:19.378 +0.588 16
6 55 Carlos Sainz 1:19.505 +0.715 20
7 4 Lando Norris 1:19.536 +0.746 16
8 10 Pierre Gasly 1:19.646 +0.856 22
9 63 George Russell 1:19.699 +0.909 23
10 23 Alexander Albon 1:19.766 +0.976 21
11 18 Lance Stroll 1:19.766 +0.976 19
12 81 Oscar Piastri 1:19.777 +0.987 22
13 27 Nico Hülkenberg 1:19.806 +1.016 19
14 21 Nyck de Vries 1:19.933 +1.143 25
15 2 Logan Sargeant 1:20.074 +1.284 21
16 31 Esteban Ocon 1:20.175 +1.385 20
17 22 Yuki Tsunoda 1:20.399 +1.609 14
18 77 Valtteri Bottas 1:20.419 +1.629 21
19 24 Guanyu Zhou 1:20.569 +1.779 22
20 20 Kevin Magnussen 1:21.147 +2.357 17
Classified by best lap · source OpenF1 (2023+)
PosPiloteMeilleur tourÉcartTours
1 14 Fernando Alonso 1:18.887 13
2 16 Charles Leclerc 1:19.332 +0.445 10
3 1 Max Verstappen 1:19.502 +0.615 12
4 63 George Russell 1:19.672 +0.785 20
5 55 Carlos Sainz 1:19.695 +0.808 12
6 31 Esteban Ocon 1:19.725 +0.838 12
7 11 Sergio Pérez 1:20.083 +1.196 15
8 4 Lando Norris 1:20.176 +1.289 20
9 27 Nico Hülkenberg 1:20.194 +1.307 19
10 10 Pierre Gasly 1:20.206 +1.319 12
11 22 Yuki Tsunoda 1:20.220 +1.333 18
12 77 Valtteri Bottas 1:20.312 +1.425 22
13 44 Lewis Hamilton 1:20.323 +1.436 17
14 81 Oscar Piastri 1:20.380 +1.493 24
15 24 Guanyu Zhou 1:20.470 +1.583 22
16 18 Lance Stroll 1:20.579 +1.692 15
17 21 Nyck de Vries 1:20.600 +1.713 8
18 23 Alexander Albon 1:21.182 +2.295 18
19 20 Kevin Magnussen 1:21.266 +2.379 18
Classified by best lap · source OpenF1 (2023+)
PosPiloteMeilleur tourÉcartTours
1 1 Max Verstappen 1:17.565 24
2 14 Fernando Alonso 1:17.727 +0.162 26
3 31 Esteban Ocon 1:17.938 +0.373 23
4 63 George Russell 1:17.955 +0.390 23
5 10 Pierre Gasly 1:18.094 +0.529 23
6 11 Sergio Pérez 1:18.123 +0.558 18
7 55 Carlos Sainz 1:18.127 +0.562 29
8 44 Lewis Hamilton 1:18.138 +0.573 25
9 18 Lance Stroll 1:18.198 +0.633 22
10 24 Guanyu Zhou 1:18.330 +0.765 20
11 27 Nico Hülkenberg 1:18.410 +0.845 24
12 23 Alexander Albon 1:18.553 +0.988 21
13 16 Charles Leclerc 1:18.691 +1.126 28
14 81 Oscar Piastri 1:18.713 +1.148 21
15 77 Valtteri Bottas 1:18.809 +1.244 24
16 22 Yuki Tsunoda 1:18.901 +1.336 22
17 2 Logan Sargeant 1:18.947 +1.382 20
18 20 Kevin Magnussen 1:19.056 +1.491 26
19 21 Nyck de Vries 1:19.092 +1.527 23
20 4 Lando Norris 1:19.146 +1.581 12
Classified by best lap · source OpenF1 (2023+)
#PiloteTemps au tourTour
1 11 Sergio Pérez 1:20.235 L53
2 1 Max Verstappen 1:20.342 L49
3 55 Carlos Sainz 1:20.467 L53
4 1 Max Verstappen 1:20.471 L50
5 14 Fernando Alonso 1:20.476 L53
6 14 Fernando Alonso 1:20.516 L52
7 44 Lewis Hamilton 1:20.613 L49
8 1 Max Verstappen 1:20.632 L51
9 11 Sergio Pérez 1:20.643 L47
10 44 Lewis Hamilton 1:20.652 L53
Top 10 la plus rapide race tours — #1 is the la plus rapide lap of la course(FL).
Arrêts aux stands · comparaison
15s 20s 25s 30s 35s 40s 45s 50s 55s 60s 65s 70s 75s 80s médiane 19.0s Sergio Pérez · L1 · 17.657s Esteban Ocon · L1 · 18.056s Nyck de Vries · L45 · 18.080s Yuki Tsunoda · L54 · 18.258s Carlos Sainz · L7 · 18.319s Logan Sargeant · L1 · 18.382s Guanyu Zhou · L1 · 18.951s Logan Sargeant · L36 · 19.018s George Russell · L7 · 19.146s Oscar Piastri · L54 · 19.442s Valtteri Bottas · L53 · 19.825s Kevin Magnussen · L7 · 20.789s Valtteri Bottas · L1 · 21.659s Guanyu Zhou · L54 · 21.881s Valtteri Bottas · L55 · 76.634s
la plus rapide 17.657s Sergio Pérez la plus lente 76.634s Valtteri Bottas temps de passage dans la voie des stands — un point par arrêt
PiloteArrêtTourTempsPassage dans la voie des stands
2 Logan Sargeant 1 1 15:05:13 18.382s
24 Guanyu Zhou 1 1 15:05:11 18.951s
31 Esteban Ocon 1 1 15:05:04 18.056s
77 Valtteri Bottas 1 1 15:05:16 21.659s
11 Sergio Pérez 1 1 15:05:15 17.657s
63 George Russell 1 7 15:15:01 19.146s
20 Kevin Magnussen 1 7 15:15:21 20.789s
55 Carlos Sainz 1 7 15:15:05 18.319s
18 Lance Stroll 1 8 15:17:51
1 Max Verstappen 1 8 15:17:45
4 Lando Norris 1 8 15:18:04
14 Fernando Alonso 1 8 15:17:48
81 Oscar Piastri 1 8 15:18:06
27 Nico Hülkenberg 1 8 15:17:55
21 Nyck de Vries 1 8 15:18:11
44 Lewis Hamilton 1 8 15:17:43
22 Yuki Tsunoda 1 8 15:18:02
10 Pierre Gasly 1 8 15:17:53
77 Valtteri Bottas 2 8 15:18:21
24 Guanyu Zhou 2 8 15:18:19
31 Esteban Ocon 2 8 15:18:14
2 Logan Sargeant 3 8 15:18:23
11 Sergio Pérez 3 8 15:18:16
2 Logan Sargeant 4 36 16:15:29 19.018s
21 Nyck de Vries 2 45 16:28:14 18.080s
77 Valtteri Bottas 3 53 16:39:03 19.825s
22 Yuki Tsunoda 2 54 16:40:36 18.258s
81 Oscar Piastri 2 54 16:40:06 19.442s
21 Nyck de Vries 3 54 16:42:01
24 Guanyu Zhou 3 54 16:40:31 21.881s
2 Logan Sargeant 5 54 16:41:54
27 Nico Hülkenberg 2 55 16:41:58
10 Pierre Gasly 2 55 16:41:47
4 Lando Norris 2 55 16:41:56
1 Max Verstappen 2 55 16:41:38
44 Lewis Hamilton 2 55 16:41:40
18 Lance Stroll 2 55 16:41:50
14 Fernando Alonso 2 55 16:41:42
55 Carlos Sainz 3 55 16:41:45
31 Esteban Ocon 3 55 16:42:03
11 Sergio Pérez 4 55 16:41:53
77 Valtteri Bottas 5 55 16:55:40 76.634s
44 Lewis Hamilton 3 57 17:02:11
14 Fernando Alonso 3 57 17:02:27
18 Lance Stroll 3 57 17:02:29
1 Max Verstappen 3 57 17:02:10
27 Nico Hülkenberg 3 57 17:02:14
4 Lando Norris 3 57 17:02:17
22 Yuki Tsunoda 4 57 17:02:16
55 Carlos Sainz 4 57 17:02:13
81 Oscar Piastri 4 57 17:02:19
24 Guanyu Zhou 5 57 17:02:22
11 Sergio Pérez 5 57 17:02:25
77 Valtteri Bottas 6 57 17:02:23
arrêts
SG 10 20 30 40 50 L58
1
3
M8
H47
S3·+3
44
3
M8
H47
S2·+4
S1·+4
14
3
M8·+1
H47
S2·+4
S1·+4
18
3
M8·+1
H47
S3·+5
11
4
H8
H47·+1
S2
S1
4
3
M8
H47
S3
27
3
M8
H47
S2·+4
S1
81
3
M8
H46
S3
S1
24
4
H54·+7
S4
22
3
M8
H46
S4·+4
77
5
H53·+7
S5·+2
55
3
M7
H48·+1
S2·+4
S1·+4
10
2
S8
H47
S1
31
3
H55·+7
S1
21
3
H8
M36
S10
S1·+4
S1
2
4
H8·+1
M27
H19·+7
S2
20
1
M7
H45·+1
63
1
M7
H10·+1
23
0
M6
16
0
M1
S Soft M Medium H Hard I Intermediate W Wet SC·VSC drapeau rouge départ arrêté départ lancé arrêt aux stands pénalité purgée aux stands
Course · largeur de barre = tours sur ce train, ·+N = monté usagé avec N tours au compteur · source OpenF1 (2023+)
Composés désignés pour ce Grand Prix
C2 Dur C3 Medium C4 Tendre
Pirelli désigne trois de ses composés slicks pour chaque épreuve ; plus le numéro C est élevé, plus le pneu est tendre. Document FIA ↗
Plus de places gagnées en piste
11
+15
P20→P5
24
+11
P17→P9
77
+11
P19→P11
81
+7
P16→P8
55
+7
P5→P12
31
+7
P11→P14
2
+7
P18→P16
20
+7
P14→P17
Plus de places perdues
George Russell −17 Yuki Tsunoda −7 Carlos Sainz −7
Course · Somme des places gagnées en piste tour par tour — tour de départ et tours aux stands du pilote exclus. Données de tours de course depuis 1996.
PiloteTypeTourPurgéeInfligéeMotif
31 Esteban Ocon No further action Decision - Car 31 - Incident with car 10 (No further action.) Document FIA ↗
Decision - Car 31 - Incident with car 10 (No further action.) Document FIA ↗
10 Pierre Gasly No further action Decision - Car 10 - Incident with car 31 (No further action.) Document FIA ↗
Decision - Car 10 - Incident with car 31 (No further action.) Document FIA ↗
55 Carlos Sainz Time penalty 58 Après la course +5s CAUSING A COLLISION
Tour 58 · Purgée Après la course · +5s CAUSING A COLLISION
Tour = tour où la pénalité a été infligée · Purgée = tour où elle a été purgée aux stands (vide : ajoutée au temps de course)
Time, drive-through and stop-go penalties come from race control messages (OpenF1, 2023+). Grille penalties never appear there — the stewards publish them as documents after the session — so they are worked back from the starting grid against the les qualifications classification, which gives places actually lost rather than the figure written in the decision.
PiloteTypeTourPurgéeInfligéeMotif
44 Lewis Hamilton No further action Decision - Mercedes - Inaccurate Self Scrutineering Form (No further action) Document FIA ↗
Decision - Mercedes - Inaccurate Self Scrutineering Form (No further action) Document FIA ↗
Tour = tour où la pénalité a été infligée · Purgée = tour où elle a été purgée aux stands (vide : ajoutée au temps de course)
Time, drive-through and stop-go penalties come from race control messages (OpenF1, 2023+). Grille penalties never appear there — the stewards publish them as documents after the session — so they are worked back from the starting grid against the les qualifications classification, which gives places actually lost rather than the figure written in the decision.
Décisions des commissaires sans sanction dans le tableau ci-dessus
PiloteObjetDocument FIA
11 Sergio Pérez Failing to set a time within 107% Ouvrir ↗
The sanction itself — fine, reprimand, licence points, or no further action — is written inside the PDF, which we do not read yet. The document link is the source of record.
DocTitreObjetPublished(CET)
Event Notes - Pirelli Preview ↗ 2023-03-29 02:21
2023-03-29 02:21 CET
Post-Course Checks Saudi Arabian GP on Car 10 ↗ 10 Pierre Gasly 2023-03-29 03:45
10 Pierre Gasly 2023-03-29 03:45 CET
Event Notes - Circuit Map and Red Zone ↗ 2023-03-30 01:46
2023-03-30 01:46 CET
Course Director's Event Notes ↗ 2023-03-30 02:05
2023-03-30 02:05 CET
Event Notes - Pit Lane Drawing ↗ 2023-03-30 22:46
2023-03-30 22:46 CET
Car Display Procedure ↗ 2023-03-30 22:51
2023-03-30 22:51 CET
RNCs utilisés per driver up to now ↗ 2023-03-31 01:02
2023-03-31 01:02 CET
PU elements utilisés per driver up to now ↗ 2023-03-31 01:02
2023-03-31 01:02 CET
Self scrutineering ↗ 2023-03-31 01:03
2023-03-31 01:03 CET
Entry List ↗ 2023-03-31 01:31
2023-03-31 01:31 CET
Summons - Mercedes - Inaccurate Self Scrutineering Form ↗ 2023-03-31 02:21
2023-03-31 02:21 CET
Decision - Mercedes - Inaccurate Self Scrutineering Form ↗ 2023-03-31 02:33
2023-03-31 02:33 CET
New RNCs for this Competition ↗ 2023-03-31 03:56
2023-03-31 03:56 CET
New PU elements for this Competition ↗ 2023-03-31 03:57
2023-03-31 03:57 CET
P1 Classification ↗ 2023-03-31 04:46
2023-03-31 04:46 CET
Offence - Car 1 - Pit lane speeding ↗ 1 Max Verstappen 2023-03-31 04:46
1 Max Verstappen 2023-03-31 04:46 CET
New RNCs for this Competition ↗ 2023-03-31 07:08
2023-03-31 07:08 CET
P2 Classification ↗ 2023-03-31 08:15
2023-03-31 08:15 CET
P1 and P2 scrutineering ↗ 2023-03-31 10:46
2023-03-31 10:46 CET
Use of a gearbox assembly outside the RNC allocation ↗ 2023-03-31 10:47
2023-03-31 10:47 CET
Course Director's Note - SC2-SC1 Time ↗ 2023-03-31 11:28
2023-03-31 11:28 CET
Course Director's Event Notes V2 ↗ 2023-04-01 00:41
2023-04-01 00:41 CET
P3 Classification ↗ 2023-04-01 04:45
2023-04-01 04:45 CET
Summons - Car 81 - Alleged failure to follow RD Event Notes ↗ 81 Oscar Piastri 2023-04-01 05:03
81 Oscar Piastri 2023-04-01 05:03 CET
Offence - Car 18 - Pit lane speeding ↗ 18 Lance Stroll 2023-04-01 05:18
18 Lance Stroll 2023-04-01 05:18 CET
Post-Qualifications Procedure ↗ 2023-04-01 05:42
2023-04-01 05:42 CET
Offence - Car 81 - Failure to follow RD Event Notes ↗ 81 Oscar Piastri 2023-04-01 05:44
81 Oscar Piastri 2023-04-01 05:44 CET
Provisional Qualifications Classification ↗ 2023-04-01 08:26
2023-04-01 08:26 CET
Qualifications Deleted Tour Times ↗ 2023-04-01 08:55
2023-04-01 08:55 CET
Decision - Car 11 - Failing to set a time within 107% ↗ 11 Sergio Pérez 2023-04-01 09:28
11 Sergio Pérez 2023-04-01 09:28 CET
Final Qualifications Classification ↗ 2023-04-01 12:16
2023-04-01 12:16 CET
P3 and Qualifications scrutineering ↗ 2023-04-01 12:17
2023-04-01 12:17 CET
Provisional Starting Grille ↗ 2023-04-01 12:20
2023-04-01 12:20 CET
Pre-Course Procedure ↗ 2023-04-02 00:26
2023-04-02 00:26 CET
Post-Course Procedure ↗ 2023-04-02 00:30
2023-04-02 00:30 CET
Parc Fermé issues ↗ 2023-04-02 04:46
2023-04-02 04:46 CET
Parts and parameters been replaced and or changed during Parc Fermé ↗ 2023-04-02 04:58
2023-04-02 04:58 CET
Offence - Car 77 - Changes made during Parc Ferme ↗ 77 Valtteri Bottas 2023-04-02 05:13
77 Valtteri Bottas 2023-04-02 05:13 CET
Offence - Car 11 - Changes made during Parc Ferme ↗ 11 Sergio Pérez 2023-04-02 05:13
11 Sergio Pérez 2023-04-02 05:13 CET
Final Starting Grille ↗ 2023-04-02 05:15
2023-04-02 05:15 CET
Summons - Car 31 - Incident with car 10 ↗ 31 Esteban Ocon 2023-04-02 09:54
31 Esteban Ocon 2023-04-02 09:54 CET
Summons - Car 10 - Incident with car 31 ↗ 10 Pierre Gasly 2023-04-02 09:54
10 Pierre Gasly 2023-04-02 09:54 CET
Provisional Course Classification ↗ 2023-04-02 10:06
2023-04-02 10:06 CET
Decision - First Restart Procedure ↗ 2023-04-02 11:00
2023-04-02 11:00 CET
Course Deleted Tour Time ↗ 2023-04-02 11:01
2023-04-02 11:01 CET
Offence - Car 55 - Causing a collision ↗ 55 Carlos Sainz 2023-04-02 11:11
55 Carlos Sainz 2023-04-02 11:11 CET
Summons - Haas ↗ 2023-04-02 11:20
2023-04-02 11:20 CET
Summons - AGPC ↗ 2023-04-02 12:03
2023-04-02 12:03 CET
Course scrutineering ↗ 2023-04-02 12:46
2023-04-02 12:46 CET
Decision - Car 31 - Incident with car 10 ↗ 31 Esteban Ocon 2023-04-02 14:46
31 Esteban Ocon 2023-04-02 14:46 CET
Decision - Car 10 - Incident with car 31 ↗ 10 Pierre Gasly 2023-04-02 14:46
10 Pierre Gasly 2023-04-02 14:46 CET
Decision - Haas Protest ↗ 2023-04-02 15:02
2023-04-02 15:02 CET
Decision - AGPC ↗ 2023-04-02 15:10
2023-04-02 15:10 CET
Final Course Classification ↗ 2023-04-02 15:16
2023-04-02 15:16 CET
Championnat Points ↗ 2023-04-02 15:21
2023-04-02 15:21 CET
Summons - Scuderia Ferrari - Right of Review ↗ 2023-04-14 14:54
2023-04-14 14:54 CET
Decision - Scuderia Ferrari - Right of Review ↗ 2023-04-18 14:00
2023-04-18 14:00 CET
FIA official decisions and documents (fia.com) · PDF original PDF links
Record Basis · Calculation basis
Course order is the final classification(post-race penalties applied) · les qualifications session data 2003+ · lap times 1996+ · pit stops 2012+ (pit-lane transit, not stationary time) · Abandon = Finished(Finished·+N Tours) non-Finished statuses
Sources des données: Jolpica-F1 (Ergast compatible API) · weather·Direction de course OpenF1 (2023+) · Last fetched: 2026-09-05 14:15